Back to catalog

COSMOS 1275 DEB

AlivePO
NORAD 42140·DEBRIS·🇷🇺 Russia

Launched Jun 4, 1981 from Plesetsk Cosmodrome

Loading…

Next Passes (next 24 hours)

TLE

AgingSource: Space-Track

Epoch: Sep 7, 2026, 17:41 UTC

1 42140U 81053RC  26250.73690570  .00000494  00000-0  66788-3 0  9995
2 42140  83.1339  66.4766 0198277 333.2029  25.8974 13.50237730596669

Track COSMOS 1275 DEB in real time with AllMySat

Download on the App Store